SCP
-0 -0 -0 -0 0 0 0 0 0 0 0 0 0 0 0 0 0 0 0 0 0 0 0 0 -0 -0 -0 -0 -0 -0 -0 -0
-0 -0 -0 -0 0 0 0 0 0 0 0 0 0 0 0 0 0 0 0 0 0 0 0 -0 -0 -0 0 -0 -0 -0 -0 -0
-0 -0 -0 -0 0 0 0 0 0 0 0 0 0 0 0 0 0 0 0 0 0 0 -0 -0 -0 -0 -0 -0 -0 -0 -0 -0
0 -0 0 -0 0 0 0 0 0 0 0 0 0 0 0 0 -0 0 0 0 -0 -0 -0 -0 0 -0 0 0 0 -0 -0 0
0 -0 -0 -0 0 0 0 0 0 0 0 0 0 0 0 0 0 0 0 -0 0 0 -0 -0 0 -0 -0 0 -0 0 0 0
0 -0 -0 0 0 0 0 0 0 0 -0 0 0 -0 0 0 0 0 0 -0 0 -0 -0 -0 -0 -0 -0 -0 -0 0 0 0
0 0 0 0 0 0 0 0 -0 0 0 -0 -0 0 -0 0 0 -0 -0 -0 -0 -0 -0 -0 -0 -0 -0 -0 -0 -0 0 0
0 0 0 0 0 0 0 0 0 0 -0 0 0 0 -0 0 -0 -0 -0 -0 -0 -0 -0 -0 -0 -0 0 0 0 0 0 0
0 0 0 0 0 0 0 0 0 0 0 0 0 0 0 0 0 0 -0 -0 -0 -0 0 0 0 0 0 0 0 0 0 0
0 0 0 0 0 0 0 0 0 0 0 0 0 0 0 0 0 0 -0 -0 0 0 0 0 0 0 0 0 0 0 0 0
0 0 0 0 0 0 0 0 0 0 0 0 0 0 0 0 0 0 0 0 0 0 0 0 0 0 0 0 0 0 0 0
0 0 0 0 0 0 0 0 0 0 0 0 0 0 0 0 0 0 0 0 0 0 0 0 0 0 0 0 0 0 0 0
0 0 0 0 0 0 0 0 0 0 0 0 0 0 0 0 0 0 0 0 0 0 0 0 0 0 0 0 0 0 0 0
0 0 0 0 0 0 0 0 0 0 0 0 0 0 0 0 0 0 0 0 0 0 0 0 0 0 0 0 0 0 0 0
0 0 0 0 0 0 0 0 0 0 0 0 0 0 0 0 0 0 0 0 0 0 0 0 0 0 0 0 0 0 0 0
0 0 0 0 0 0 0 0 0 0 0 0 0 0 0 0 0 0 0 0 0 0 0 0 0 0 0 0 0 0 0 0
1 1 0 0 0 1 1 0 0 0 0 0 0 0 0 0 0 0 0 0 0 0 0 0 0 0 0 0 0 0 0 0
1 2 1 1 0 1 1 0 0 1 0 0 0 0 0 0 0 0 0 0 0 0 0 0 0 0 0 0 0 0 0 0
2 1 1 1 1 1 1 0 1 2 0 0 0 0 0 0 0 0 0 0 0 0 0 0 0 0 0 0 0 0 0 0
3 2 1 0 1 2 1 1 2 1 0 0 0 0 0 0 0 0 0 0 0 0 0 0 0 0 0 0 0 0 0 0
Wind_Speed_500mb
39 40 38 33 30 29 28 29 31 31 31 35 39 40 43 46 47 43 40 36 33 31 29 27 27 28 28 28 29 27 19 11
39 36 36 36 35 31 30 32 33 33 35 40 41 42 42 41 40 37 34 31 28 25 24 22 22 22 22 23 28 26 16 16
40 38 35 33 36 36 33 34 33 34 38 39 38 37 34 34 29 32 28 25 21 20 19 17 15 17 16 20 22 15 21 16
43 41 40 37 33 39 35 35 36 32 39 42 28 26 22 19 29 25 23 20 18 17 16 20 18 13 16 21 10 6 5 8
45 43 42 40 36 33 31 29 30 30 34 29 31 27 27 21 24 22 19 17 16 14 16 10 9 10 9 11 4 5 2 4
49 43 42 41 37 35 32 30 30 30 32 31 30 24 25 21 16 16 15 7 15 11 10 11 11 12 15 16 15 7 1 9
52 45 44 40 39 36 35 31 30 27 29 29 27 23 23 21 21 17 15 13 12 11 13 15 16 12 8 10 10 5 3 11
54 50 45 40 38 38 36 35 34 31 26 28 27 23 23 20 18 18 16 14 15 13 15 17 14 9 6 8 15 12 2 12
55 53 47 43 37 37 34 32 30 29 28 30 27 23 27 22 21 19 17 22 24 20 17 13 11 8 6 7 13 20 14 14
54 52 50 46 39 37 33 33 30 27 25 27 29 23 23 24 22 22 21 18 16 15 15 14 13 12 14 15 15 16 17 19
54 53 51 49 43 38 35 34 31 29 27 26 29 26 24 22 20 21 21 17 21 14 15 12 15 16 15 16 16 15 15 11
53 54 52 49 44 40 35 34 32 31 31 27 31 26 26 25 24 23 20 17 14 15 17 17 17 20 20 19 18 15 13 12
59 59 56 52 45 45 41 39 36 33 32 30 32 27 30 30 21 27 24 19 18 21 20 21 20 24 21 18 14 15 15 11
62 59 56 56 48 45 42 40 37 33 32 34 32 36 32 30 24 23 27 21 26 22 24 23 22 27 19 15 11 8 8 11
67 68 62 59 50 47 42 39 38 36 36 32 35 38 33 30 28 23 23 24 23 24 26 26 26 28 23 13 10 11 20 8
73 68 63 61 57 50 50 50 44 39 37 31 37 42 39 34 30 30 27 22 20 23 26 28 27 27 26 24 15 11 14 13
87 76 63 65 64 56 56 46 38 30 33 33 37 43 42 37 33 31 28 25 27 26 30 32 28 24 23 23 19 13 12 11
71 73 72 67 65 63 67 51 39 36 36 37 34 37 40 39 35 32 31 28 29 29 31 30 29 27 25 24 23 20 15 14
67 65 64 81 76 78 67 51 45 47 43 39 37 36 38 41 37 34 30 30 30 29 30 28 30 28 29 27 24 24 17 16
72 62 61 64 76 81 69 55 51 44 39 37 43 44 46 41 35 33 32 31 30 30 28 28 28 31 31 27 23 22 23 20
Wind_Direction_500mb
151 158 154 151 150 151 149 147 146 146 138 138 136 131 131 136 137 138 137 133 127 120 114 110 110 109 104 101 102 88 91 84
152 155 150 153 151 151 149 147 146 145 143 144 141 138 136 138 141 143 142 140 133 122 116 112 110 110 104 92 95 62 73 105
156 155 155 155 156 150 150 147 146 145 144 141 135 137 133 133 148 147 144 140 133 127 119 108 106 101 91 89 69 60 89 78
161 160 158 154 152 149 149 147 140 146 148 138 133 145 142 162 153 148 144 139 134 129 116 89 106 68 70 67 78 90 136 223
164 164 162 155 163 150 152 143 150 149 148 142 166 157 164 156 154 149 140 126 120 117 97 77 101 94 90 86 58 153 47 126
163 169 166 160 160 157 159 163 158 159 158 162 159 150 149 165 157 156 156 150 155 146 153 139 121 161 156 156 166 250 112 129
169 172 169 168 164 164 162 165 160 165 167 160 157 167 161 159 169 160 161 161 155 151 145 129 120 122 120 107 109 174 172 155
172 173 173 174 167 171 167 166 167 166 168 175 169 169 166 167 165 165 167 166 153 147 147 129 131 140 160 130 113 108 30 134
179 175 177 177 176 171 169 170 172 171 171 179 171 174 173 174 172 174 171 183 179 172 151 170 143 151 158 135 119 120 94 115
183 179 180 178 181 175 174 181 170 176 182 175 175 176 180 173 182 179 176 160 160 163 161 160 148 133 128 123 124 122 128 127
187 183 184 180 182 178 178 191 177 183 180 182 178 178 178 171 180 183 169 173 190 211 194 182 165 149 138 127 121 117 117 138
189 187 187 183 183 179 183 189 183 189 188 186 182 184 184 172 190 196 180 187 189 182 180 175 167 154 147 138 137 134 131 125
189 189 189 184 186 181 186 190 187 187 184 188 190 194 197 190 193 203 192 191 193 195 185 174 165 159 143 134 138 144 135 137
189 192 191 188 190 188 190 189 193 191 191 201 193 206 205 202 196 203 202 198 212 211 199 175 180 175 161 154 152 145 152 152
191 192 195 194 193 188 188 190 192 193 199 202 200 211 213 211 211 203 216 211 227 226 204 190 192 195 185 194 174 210 162 186
192 192 195 200 194 194 193 192 194 198 201 199 210 215 217 219 222 223 231 225 220 220 206 198 190 203 208 218 201 163 176 163
197 195 192 204 196 198 198 197 195 203 202 199 207 214 217 221 223 228 233 224 227 218 212 201 205 203 213 215 208 210 201 189
200 191 194 202 200 198 207 198 200 205 202 200 203 212 216 224 228 230 233 229 231 221 219 214 199 200 209 205 202 201 217 209
198 199 202 203 201 202 212 210 204 212 203 201 200 204 214 225 230 230 230 231 236 225 225 218 207 200 197 207 200 206 204 206
202 203 207 223 219 219 213 214 206 210 207 203 210 212 226 237 236 231 230 234 237 232 226 214 207 199 201 197 209 208 218 208
Wind_Speed_850mb
39 40 38 33 30 29 28 29 31 31 31 35 39 40 43 46 47 43 40 36 33 31 29 27 27 28 28 28 29 27 19 11
39 36 36 36 35 31 30 32 33 33 35 40 41 42 42 41 40 37 34 31 28 25 24 22 22 22 22 23 28 26 16 16
40 38 35 33 36 36 33 34 33 34 38 39 38 37 34 34 29 32 28 25 21 20 19 17 15 17 16 20 22 15 21 16
43 41 40 37 33 39 35 35 36 32 39 42 28 26 22 19 29 25 23 20 18 17 16 20 18 13 16 21 10 6 5 8
45 43 42 40 36 33 31 29 30 30 34 29 31 27 27 21 24 22 19 17 16 14 16 10 9 10 9 11 4 5 2 4
49 43 42 41 37 35 32 30 30 30 32 31 30 24 25 21 16 16 15 7 15 11 10 11 11 12 15 16 15 7 1 9
52 45 44 40 39 36 35 31 30 27 29 29 27 23 23 21 21 17 15 13 12 11 13 15 16 12 8 10 10 5 3 11
54 50 45 40 38 38 36 35 34 31 26 28 27 23 23 20 18 18 16 14 15 13 15 17 14 9 6 8 15 12 2 12
55 53 47 43 37 37 34 32 30 29 28 30 27 23 27 22 21 19 17 22 24 20 17 13 11 8 6 7 13 20 14 14
54 52 50 46 39 37 33 33 30 27 25 27 29 23 23 24 22 22 21 18 16 15 15 14 13 12 14 15 15 16 17 19
54 53 51 49 43 38 35 34 31 29 27 26 29 26 24 22 20 21 21 17 21 14 15 12 15 16 15 16 16 15 15 11
53 54 52 49 44 40 35 34 32 31 31 27 31 26 26 25 24 23 20 17 14 15 17 17 17 20 20 19 18 15 13 12
59 59 56 52 45 45 41 39 36 33 32 30 32 27 30 30 21 27 24 19 18 21 20 21 20 24 21 18 14 15 15 11
62 59 56 56 48 45 42 40 37 33 32 34 32 36 32 30 24 23 27 21 26 22 24 23 22 27 19 15 11 8 8 11
67 68 62 59 50 47 42 39 38 36 36 32 35 38 33 30 28 23 23 24 23 24 26 26 26 28 23 13 10 11 20 8
73 68 63 61 57 50 50 50 44 39 37 31 37 42 39 34 30 30 27 22 20 23 26 28 27 27 26 24 15 11 14 13
87 76 63 65 64 56 56 46 38 30 33 33 37 43 42 37 33 31 28 25 27 26 30 32 28 24 23 23 19 13 12 11
71 73 72 67 65 63 67 51 39 36 36 37 34 37 40 39 35 32 31 28 29 29 31 30 29 27 25 24 23 20 15 14
67 65 64 81 76 78 67 51 45 47 43 39 37 36 38 41 37 34 30 30 30 29 30 28 30 28 29 27 24 24 17 16
72 62 61 64 76 81 69 55 51 44 39 37 43 44 46 41 35 33 32 31 30 30 28 28 28 31 31 27 23 22 23 20
Wind_Direction_850mb
151 158 154 151 150 151 149 147 146 146 138 138 136 131 131 136 137 138 137 133 127 120 114 110 110 109 104 101 102 88 91 84
152 155 150 153 151 151 149 147 146 145 143 144 141 138 136 138 141 143 142 140 133 122 116 112 110 110 104 92 95 62 73 105
156 155 155 155 156 150 150 147 146 145 144 141 135 137 133 133 148 147 144 140 133 127 119 108 106 101 91 89 69 60 89 78
161 160 158 154 152 149 149 147 140 146 148 138 133 145 142 162 153 148 144 139 134 129 116 89 106 68 70 67 78 90 136 223
164 164 162 155 163 150 152 143 150 149 148 142 166 157 164 156 154 149 140 126 120 117 97 77 101 94 90 86 58 153 47 126
163 169 166 160 160 157 159 163 158 159 158 162 159 150 149 165 157 156 156 150 155 146 153 139 121 161 156 156 166 250 112 129
169 172 169 168 164 164 162 165 160 165 167 160 157 167 161 159 169 160 161 161 155 151 145 129 120 122 120 107 109 174 172 155
172 173 173 174 167 171 167 166 167 166 168 175 169 169 166 167 165 165 167 166 153 147 147 129 131 140 160 130 113 108 30 134
179 175 177 177 176 171 169 170 172 171 171 179 171 174 173 174 172 174 171 183 179 172 151 170 143 151 158 135 119 120 94 115
183 179 180 178 181 175 174 181 170 176 182 175 175 176 180 173 182 179 176 160 160 163 161 160 148 133 128 123 124 122 128 127
187 183 184 180 182 178 178 191 177 183 180 182 178 178 178 171 180 183 169 173 190 211 194 182 165 149 138 127 121 117 117 138
189 187 187 183 183 179 183 189 183 189 188 186 182 184 184 172 190 196 180 187 189 182 180 175 167 154 147 138 137 134 131 125
189 189 189 184 186 181 186 190 187 187 184 188 190 194 197 190 193 203 192 191 193 195 185 174 165 159 143 134 138 144 135 137
189 192 191 188 190 188 190 189 193 191 191 201 193 206 205 202 196 203 202 198 212 211 199 175 180 175 161 154 152 145 152 152
191 192 195 194 193 188 188 190 192 193 199 202 200 211 213 211 211 203 216 211 227 226 204 190 192 195 185 194 174 210 162 186
192 192 195 200 194 194 193 192 194 198 201 199 210 215 217 219 222 223 231 225 220 220 206 198 190 203 208 218 201 163 176 163
197 195 192 204 196 198 198 197 195 203 202 199 207 214 217 221 223 228 233 224 227 218 212 201 205 203 213 215 208 210 201 189
200 191 194 202 200 198 207 198 200 205 202 200 203 212 216 224 228 230 233 229 231 221 219 214 199 200 209 205 202 201 217 209
198 199 202 203 201 202 212 210 204 212 203 201 200 204 214 225 230 230 230 231 236 225 225 218 207 200 197 207 200 206 204 206
202 203 207 223 219 219 213 214 206 210 207 203 210 212 226 237 236 231 230 234 237 232 226 214 207 199 201 197 209 208 218 208